When you browse on this site, cookies collect data to enhance your experience and personalize the content and advertising you see.
Visit our Privacy Policy to learn more. By continuing to use the site, you agree to this use of cookies and data.
  • En España
  • Lista de países
  • Para 7 días
  • Temperatura del agua
  • El tiempo en el mapa
  • Informadores
  • user-avatar
    Iniciar sesión

    Tiempo cada hora Stafford

    Hoy, 28 Enero, Martes

    Tiempo Temperatura Precipitaciones Viento Presión Humedad
    00:00 +2°C° 0.1 mm 5 mps 732 mmHg 91%
    01:00 +2°C° 0 mm 5 mps 732 mmHg 89%
    02:00 +1°C° 0 mm 5 mps 732 mmHg 87%
    03:00 0°C° 0 mm 5 mps 732 mmHg 85%
    04:00 -1°C° 0.1 mm 6 mps 733 mmHg 85%
    05:00 -1°C° 0.1 mm 6 mps 733 mmHg 86%
    06:00 -1°C° 0.1 mm 7 mps 734 mmHg 86%
    07:00 -1°C° 0 mm 6 mps 735 mmHg 84%
    08:00 -1°C° 0 mm 6 mps 735 mmHg 82%
    09:00 -2°C° 0 mm 6 mps 736 mmHg 80%
    10:00 +1°C° 0 mm 6 mps 736 mmHg 76%
    11:00 +2°C° 0 mm 7 mps 737 mmHg 73%
    12:00 +2°C° 0 mm 8 mps 737 mmHg 70%
    13:00 +2°C° 0 mm 8 mps 737 mmHg 73%
    14:00 +2°C° 0 mm 8 mps 738 mmHg 76%
    15:00 +1°C° 0 mm 8 mps 738 mmHg 80%
    16:00 +2°C° 0 mm 7 mps 738 mmHg 81%
    17:00 +1°C° 0 mm 6 mps 739 mmHg 83%
    18:00 +1°C° 0 mm 5 mps 740 mmHg 84%
    19:00 +1°C° 0 mm 5 mps 741 mmHg 85%
    20:00 0°C° 0 mm 5 mps 741 mmHg 85%
    21:00 0°C° 0 mm 5 mps 742 mmHg 86%
    22:00 0°C° 0 mm 5 mps 742 mmHg 85%
    23:00 0°C° 0 mm 5 mps 743 mmHg 84%

    Mañana, 29 Enero, Miércoles

    Tiempo Temperatura Precipitaciones Viento Presión Humedad
    00:00 0°C° 0 mm 5 mps 743 mmHg 84%
    01:00 -1°C° 0 mm 5 mps 744 mmHg 83%
    02:00 -1°C° 0 mm 5 mps 744 mmHg 82%
    03:00 -1°C° 0 mm 5 mps 744 mmHg 81%
    04:00 -1°C° 0 mm 5 mps 745 mmHg 82%
    05:00 -1°C° 0 mm 5 mps 745 mmHg 82%
    06:00 -1°C° 0 mm 5 mps 746 mmHg 83%
    07:00 -1°C° 0 mm 5 mps 746 mmHg 83%
    08:00 -1°C° 0 mm 5 mps 747 mmHg 84%
    09:00 0°C° 0 mm 4 mps 748 mmHg 84%
    10:00 +1°C° 0 mm 5 mps 748 mmHg 80%
    11:00 +3°C° 0 mm 5 mps 748 mmHg 76%
    12:00 +4°C° 0 mm 6 mps 749 mmHg 72%
    13:00 +5°C° 0 mm 5 mps 748 mmHg 73%
    14:00 +6°C° 0 mm 5 mps 748 mmHg 73%
    15:00 +6°C° 0 mm 5 mps 748 mmHg 74%
    16:00 +5°C° 0 mm 5 mps 748 mmHg 78%
    17:00 +5°C° 0 mm 5 mps 748 mmHg 81%
    18:00 +3°C° 0 mm 6 mps 748 mmHg 85%
    19:00 +3°C° 0 mm 6 mps 748 mmHg 87%
    20:00 +3°C° 0 mm 6 mps 748 mmHg 88%
    21:00 +3°C° 0 mm 6 mps 748 mmHg 90%
    22:00 +3°C° 0 mm 5 mps 748 mmHg 90%
    23:00 +3°C° 0 mm 5 mps 748 mmHg 90%

    Pasado mañana, 30 Enero, Jueves

    Tiempo Temperatura Precipitaciones Viento Presión Humedad
    00:00 +3°C° 0 mm 5 mps 748 mmHg 90%
    01:00 +4°C° 0 mm 4 mps 747 mmHg 91%
    02:00 +4°C° 0 mm 4 mps 747 mmHg 93%
    03:00 +3°C° 0 mm 4 mps 747 mmHg 95%
    04:00 +3°C° 0 mm 4 mps 746 mmHg 96%
    05:00 +3°C° 0 mm 4 mps 746 mmHg 96%
    06:00 +3°C° 0 mm 4 mps 746 mmHg 97%
    07:00 +4°C° 0 mm 4 mps 745 mmHg 96%
    08:00 +5°C° 0 mm 4 mps 745 mmHg 96%
    09:00 +5°C° 0 mm 4 mps 745 mmHg 96%
    10:00 +6°C° 0 mm 4 mps 744 mmHg 94%
    11:00 +7°C° 0 mm 5 mps 744 mmHg 92%
    12:00 +8°C° 0 mm 5 mps 744 mmHg 90%
    13:00 +8°C° 0 mm 5 mps 743 mmHg 89%
    14:00 +9°C° 0 mm 5 mps 743 mmHg 88%
    15:00 +9°C° 0 mm 5 mps 743 mmHg 87%
    16:00 +8°C° 0 mm 4 mps 743 mmHg 88%
    17:00 +7°C° 0 mm 4 mps 743 mmHg 89%
    18:00 +6°C° 0 mm 4 mps 743 mmHg 90%
    19:00 +6°C° 0 mm 4 mps 743 mmHg 91%
    20:00 +6°C° 0 mm 4 mps 744 mmHg 92%
    21:00 +6°C° 0 mm 4 mps 744 mmHg 93%
    22:00 +6°C° 0 mm 4 mps 744 mmHg 92%
    23:00 +7°C° 0 mm 4 mps 745 mmHg 91%

    31 Enero, Viernes

    Tiempo Temperatura Precipitaciones Viento Presión Humedad
    00:00 +7°C° 0 mm 5 mps 745 mmHg 91%
    01:00 +7°C° 0 mm 5 mps 745 mmHg 91%
    02:00 +8°C° 0 mm 5 mps 745 mmHg 91%
    03:00 +8°C° 0 mm 5 mps 745 mmHg 91%
    04:00 +8°C° 0 mm 5 mps 745 mmHg 91%
    05:00 +8°C° 0 mm 5 mps 744 mmHg 91%
    06:00 +8°C° 0 mm 5 mps 744 mmHg 91%
    07:00 +8°C° 0 mm 6 mps 744 mmHg 91%
    08:00 +8°C° 0 mm 6 mps 744 mmHg 91%
    09:00 +8°C° 0 mm 7 mps 744 mmHg 91%
    10:00 +9°C° 0.1 mm 7 mps 743 mmHg 90%
    11:00 +9°C° 0.1 mm 7 mps 743 mmHg 89%
    12:00 +10°C° 0.1 mm 7 mps 742 mmHg 88%
    13:00 +10°C° 0 mm 7 mps 742 mmHg 88%
    14:00 +10°C° 0 mm 6 mps 741 mmHg 88%
    15:00 +11°C° 0 mm 6 mps 741 mmHg 88%
    16:00 +10°C° 0 mm 6 mps 741 mmHg 87%
    17:00 +10°C° 0 mm 6 mps 741 mmHg 85%
    18:00 +9°C° 0 mm 6 mps 742 mmHg 84%
    19:00 +9°C° 0 mm 6 mps 742 mmHg 85%
    20:00 +8°C° 0 mm 6 mps 742 mmHg 86%
    21:00 +7°C° 0 mm 6 mps 742 mmHg 87%
    22:00 +8°C° 0.1 mm 6 mps 742 mmHg 87%
    23:00 +8°C° 0.1 mm 6 mps 742 mmHg 88%

    1 Febrero, Sábado

    Tiempo Temperatura Precipitaciones Viento Presión Humedad
    00:00 +8°C° 0.1 mm 6 mps 742 mmHg 88%
    01:00 +8°C° 0.1 mm 6 mps 742 mmHg 88%
    02:00 +7°C° 0.1 mm 5 mps 742 mmHg 87%
    03:00 +7°C° 0.1 mm 5 mps 742 mmHg 87%
    04:00 +6°C° 0 mm 5 mps 742 mmHg 86%
    05:00 +6°C° 0 mm 5 mps 743 mmHg 85%
    06:00 +5°C° 0 mm 5 mps 743 mmHg 84%
    07:00 +5°C° 0 mm 5 mps 743 mmHg 84%
    08:00 +5°C° 0 mm 5 mps 744 mmHg 84%
    09:00 +5°C° 0 mm 5 mps 745 mmHg 84%
    10:00 +5°C° 0 mm 6 mps 745 mmHg 78%
    11:00 +6°C° 0 mm 7 mps 745 mmHg 73%
    12:00 +7°C° 0 mm 8 mps 746 mmHg 68%
    13:00 +8°C° 0 mm 7 mps 746 mmHg 69%
    14:00 +8°C° 0 mm 6 mps 746 mmHg 70%
    15:00 +8°C° 0 mm 5 mps 746 mmHg 72%
    16:00 +8°C° 0 mm 6 mps 745 mmHg 74%
    17:00 +7°C° 0 mm 6 mps 745 mmHg 76%
    18:00 +7°C° 0 mm 6 mps 744 mmHg 78%
    19:00 +6°C° 0.4 mm 7 mps 743 mmHg 82%
    20:00 +8°C° 0.4 mm 7 mps 742 mmHg 86%
    21:00 +9°C° 0.4 mm 7 mps 741 mmHg 90%
    22:00 +9°C° 0.3 mm 8 mps 740 mmHg 90%
    23:00 +10°C° 0.3 mm 9 mps 739 mmHg 90%

    2 Febrero, Domingo

    Tiempo Temperatura Precipitaciones Viento Presión Humedad
    00:00 +11°C° 0.3 mm 9 mps 737 mmHg 90%
    01:00 +10°C° 0.1 mm 9 mps 738 mmHg 86%
    02:00 +8°C° 0.1 mm 9 mps 738 mmHg 82%
    03:00 +8°C° 0.1 mm 10 mps 738 mmHg 78%
    04:00 +7°C° 0 mm 9 mps 738 mmHg 79%
    05:00 +6°C° 0 mm 9 mps 738 mmHg 80%
    06:00 +6°C° 0 mm 9 mps 738 mmHg 81%
    07:00 +6°C° 0.1 mm 10 mps 738 mmHg 79%
    08:00 +7°C° 0.1 mm 10 mps 739 mmHg 77%
    09:00 +7°C° 0.1 mm 11 mps 739 mmHg 75%
    10:00 +7°C° 0.1 mm 11 mps 739 mmHg 73%
    11:00 +8°C° 0.1 mm 11 mps 740 mmHg 71%
    12:00 +8°C° 0.1 mm 11 mps 740 mmHg 69%
    13:00 +8°C° 0 mm 11 mps 741 mmHg 70%
    14:00 +8°C° 0 mm 11 mps 741 mmHg 70%
    15:00 +7°C° 0 mm 10 mps 742 mmHg 71%
    16:00 +7°C° 0 mm 9 mps 743 mmHg 73%
    17:00 +6°C° 0 mm 8 mps 744 mmHg 75%
    18:00 +7°C° 0 mm 6 mps 745 mmHg 78%
    19:00 +5°C° 0 mm 6 mps 746 mmHg 80%
    20:00 +5°C° 0 mm 6 mps 746 mmHg 83%
    21:00 +5°C° 0 mm 5 mps 747 mmHg 86%
    22:00 +5°C° 0 mm 5 mps 747 mmHg 87%
    23:00 +5°C° 0 mm 4 mps 748 mmHg 88%
    Mostrar más